LOCATION_NAME,SAMPLE COLLECTION TIME,DOSE EQUIVALENT RATE (nSv/h),GAMMA COUNT RATE R02 (CPM),GAMMA COUNT RATE R03 (CPM),GAMMA COUNT RATE R04 (CPM),GAMMA COUNT RATE R05 (CPM),GAMMA COUNT RATE R06 (CPM),GAMMA COUNT RATE R07 (CPM),GAMMA COUNT RATE R08 (CPM),GAMMA COUNT RATE R09 (CPM),STATUS
IL: CHAMPAIGN,01/01/2014 00:23:00,,2420.00,1349.00,390.00,206.00,130.00,153.00,95.00,40.00,APPROVED
IL: CHAMPAIGN,01/01/2014 01:23:00,,2434.00,1372.00,395.00,209.00,132.00,157.00,97.00,41.00,APPROVED
IL: CHAMPAIGN,01/01/2014 02:23:00,,2460.00,1368.00,405.00,212.00,132.00,153.00,100.00,40.00,APPROVED
IL: CHAMPAIGN,01/01/2014 03:24:00,,2523.00,1423.00,410.00,216.00,134.00,161.00,99.00,41.00,APPROVED
IL: CHAMPAIGN,01/01/2014 04:24:00,,2539.00,1443.00,412.00,221.00,136.00,163.00,98.00,41.00,APPROVED
IL: CHAMPAIGN,01/01/2014 05:24:00,,2571.00,1451.00,415.00,222.00,136.00,168.00,97.00,41.00,APPROVED
IL: CHAMPAIGN,01/01/2014 06:24:00,,2590.00,1458.00,417.00,220.00,135.00,165.00,102.00,42.00,APPROVED
IL: CHAMPAIGN,01/01/2014 07:25:00,,2578.00,1466.00,416.00,222.00,139.00,167.00,99.00,42.00,APPROVED
IL: CHAMPAIGN,01/01/2014 08:25:00,,2582.00,1456.00,425.00,228.00,136.00,164.00,101.00,42.00,APPROVED
IL: CHAMPAIGN,01/01/2014 09:25:00,,2582.00,1456.00,422.00,224.00,140.00,168.00,100.00,43.00,APPROVED
IL: CHAMPAIGN,01/01/2014 10:25:00,,2580.00,1461.00,416.00,223.00,139.00,165.00,102.00,43.00,APPROVED
IL: CHAMPAIGN,01/01/2014 11:26:00,,2578.00,1451.00,419.00,220.00,137.00,164.00,102.00,42.00,APPROVED
IL: CHAMPAIGN,01/01/2014 12:26:00,,2577.00,1459.00,416.00,221.00,136.00,161.00,96.00,41.00,APPROVED
IL: CHAMPAIGN,01/01/2014 13:26:00,,2574.00,1448.00,417.00,222.00,135.00,164.00,101.00,41.00,APPROVED
IL: CHAMPAIGN,01/01/2014 14:26:00,,2564.00,1453.00,421.00,223.00,134.00,165.00,99.00,42.00,APPROVED
IL: CHAMPAIGN,01/01/2014 15:26:00,,2558.00,1453.00,414.00,221.00,137.00,164.00,98.00,43.00,APPROVED
IL: CHAMPAIGN,01/01/2014 16:27:00,,2567.00,1455.00,419.00,223.00,136.00,161.00,100.00,42.00,APPROVED
IL: CHAMPAIGN,01/01/2014 17:27:00,,2561.00,1451.00,420.00,224.00,139.00,168.00,103.00,44.00,APPROVED
IL: CHAMPAIGN,01/01/2014 18:27:00,,2550.00,1454.00,419.00,227.00,137.00,164.00,103.00,42.00,APPROVED
IL: CHAMPAIGN,01/01/2014 19:27:00,,2529.00,1441.00,415.00,222.00,138.00,164.00,103.00,43.00,APPROVED
IL: CHAMPAIGN,01/01/2014 20:28:00,,2495.00,1431.00,415.00,225.00,138.00,165.00,103.00,43.00,APPROVED
IL: CHAMPAIGN,01/01/2014 21:28:00,,2504.00,1440.00,420.00,223.00,137.00,164.00,103.00,44.00,APPROVED
IL: CHAMPAIGN,01/01/2014 22:28:00,,2519.00,1437.00,416.00,222.00,138.00,165.00,103.00,44.00,APPROVED
IL: CHAMPAIGN,01/01/2014 23:28:00,,2527.00,1430.00,413.00,223.00,135.00,164.00,101.00,43.00,APPROVED
IL: CHAMPAIGN,01/02/2014 00:29:00,,2536.00,1443.00,416.00,221.00,135.00,162.00,98.00,42.00,APPROVED
IL: CHAMPAIGN,01/02/2014 01:29:00,,2668.00,1541.00,446.00,238.00,144.00,177.00,102.00,43.00,APPROVED
IL: CHAMPAIGN,01/02/2014 02:29:00,,2678.00,1549.00,453.00,243.00,147.00,181.00,104.00,43.00,APPROVED
IL: CHAMPAIGN,01/02/2014 03:29:00,,2710.00,1561.00,460.00,244.00,143.00,185.00,104.00,43.00,APPROVED
IL: CHAMPAIGN,01/02/2014 04:30:00,,2780.00,1624.00,474.00,251.00,149.00,185.00,107.00,44.00,APPROVED
IL: CHAMPAIGN,01/02/2014 05:30:00,,2719.00,1576.00,463.00,242.00,144.00,186.00,102.00,44.00,APPROVED
IL: CHAMPAIGN,01/02/2014 06:30:00,,2590.00,1463.00,434.00,226.00,136.00,172.00,99.00,42.00,APPROVED
IL: CHAMPAIGN,01/02/2014 07:30:00,,2501.00,1381.00,409.00,208.00,130.00,158.00,91.00,39.00,APPROVED
IL: CHAMPAIGN,01/02/2014 08:30:00,,2487.00,1368.00,400.00,207.00,127.00,158.00,88.00,40.00,APPROVED
IL: CHAMPAIGN,01/02/2014 09:31:00,,2536.00,1394.00,414.00,205.00,129.00,159.00,89.00,40.00,APPROVED
IL: CHAMPAIGN,01/02/2014 10:31:00,,2524.00,1386.00,407.00,208.00,128.00,159.00,91.00,41.00,APPROVED
IL: CHAMPAIGN,01/02/2014 11:31:00,,2477.00,1366.00,398.00,203.00,127.00,156.00,88.00,40.00,APPROVED
IL: CHAMPAIGN,01/02/2014 12:31:00,,2391.00,1278.00,375.00,190.00,121.00,148.00,81.00,39.00,APPROVED
IL: CHAMPAIGN,01/02/2014 13:32:00,,2320.00,1224.00,357.00,178.00,116.00,140.00,80.00,38.00,APPROVED
IL: CHAMPAIGN,01/02/2014 14:12:00,,2350.00,1251.00,362.00,177.00,119.00,142.00,79.00,40.00,APPROVED
IL: CHAMPAIGN,01/02/2014 15:18:00,,2318.00,1212.00,351.00,175.00,113.00,139.00,79.00,38.00,APPROVED
IL: CHAMPAIGN,01/02/2014 16:19:00,,2343.00,1244.00,358.00,179.00,116.00,141.00,79.00,36.00,APPROVED
IL: CHAMPAIGN,01/02/2014 17:19:00,,2346.00,1253.00,363.00,181.00,117.00,143.00,82.00,37.00,APPROVED
IL: CHAMPAIGN,01/02/2014 18:19:00,,2322.00,1244.00,361.00,181.00,117.00,141.00,81.00,39.00,APPROVED
IL: CHAMPAIGN,01/02/2014 19:19:00,,2305.00,1222.00,359.00,180.00,117.00,141.00,79.00,36.00,APPROVED
IL: CHAMPAIGN,01/02/2014 20:20:00,,2299.00,1207.00,354.00,177.00,117.00,138.00,81.00,35.00,APPROVED
IL: CHAMPAIGN,01/02/2014 21:20:00,,2289.00,1195.00,352.00,177.00,113.00,135.00,80.00,38.00,APPROVED
IL: CHAMPAIGN,01/02/2014 22:20:00,,2309.00,1210.00,353.00,179.00,115.00,137.00,81.00,37.00,APPROVED
IL: CHAMPAIGN,01/02/2014 23:20:00,,2311.00,1220.00,356.00,179.00,115.00,139.00,80.00,36.00,APPROVED
IL: CHAMPAIGN,01/03/2014 00:21:00,,2321.00,1225.00,353.00,179.00,117.00,138.00,80.00,37.00,APPROVED
IL: CHAMPAIGN,01/03/2014 01:21:00,,2305.00,1221.00,359.00,178.00,116.00,140.00,81.00,37.00,APPROVED
IL: CHAMPAIGN,01/03/2014 02:21:00,,2307.00,1207.00,354.00,171.00,114.00,140.00,76.00,37.00,APPROVED
IL: CHAMPAIGN,01/03/2014 03:21:00,,2275.00,1189.00,350.00,170.00,115.00,138.00,75.00,37.00,APPROVED
IL: CHAMPAIGN,01/03/2014 04:21:00,,2272.00,1191.00,350.00,169.00,114.00,140.00,75.00,38.00,APPROVED
IL: CHAMPAIGN,01/03/2014 05:22:00,,2284.00,1189.00,350.00,170.00,114.00,139.00,74.00,37.00,APPROVED
IL: CHAMPAIGN,01/03/2014 06:22:00,,2278.00,1184.00,348.00,174.00,114.00,136.00,73.00,38.00,APPROVED
IL: CHAMPAIGN,01/03/2014 07:22:00,,2273.00,1193.00,350.00,169.00,112.00,139.00,71.00,37.00,APPROVED
IL: CHAMPAIGN,01/03/2014 08:22:00,,2269.00,1185.00,348.00,172.00,114.00,140.00,72.00,36.00,APPROVED
IL: CHAMPAIGN,01/03/2014 09:23:00,,2283.00,1204.00,351.00,170.00,112.00,140.00,74.00,37.00,APPROVED
IL: CHAMPAIGN,01/03/2014 10:23:00,,2296.00,1228.00,357.00,176.00,117.00,143.00,74.00,38.00,APPROVED
IL: CHAMPAIGN,01/03/2014 11:23:00,,2332.00,1250.00,369.00,177.00,115.00,148.00,73.00,38.00,APPROVED
IL: CHAMPAIGN,01/03/2014 12:23:00,,2365.00,1293.00,378.00,190.00,121.00,152.00,77.00,37.00,APPROVED
IL: CHAMPAIGN,01/03/2014 13:24:00,,2371.00,1301.00,385.00,188.00,121.00,153.00,80.00,37.00,APPROVED
IL: CHAMPAIGN,01/03/2014 14:24:00,,2476.00,1426.00,413.00,207.00,131.00,170.00,85.00,40.00,APPROVED
IL: CHAMPAIGN,01/03/2014 15:24:00,,2564.00,1509.00,448.00,226.00,139.00,185.00,92.00,42.00,APPROVED
IL: CHAMPAIGN,01/03/2014 16:24:00,,2563.00,1488.00,437.00,223.00,137.00,179.00,91.00,41.00,APPROVED
IL: CHAMPAIGN,01/03/2014 17:25:00,,2457.00,1371.00,403.00,208.00,130.00,162.00,88.00,40.00,APPROVED
IL: CHAMPAIGN,01/03/2014 18:25:00,,2398.00,1316.00,382.00,196.00,122.00,149.00,86.00,39.00,APPROVED
IL: CHAMPAIGN,01/03/2014 19:25:00,,2318.00,1250.00,368.00,189.00,117.00,143.00,84.00,38.00,APPROVED
IL: CHAMPAIGN,01/03/2014 20:25:00,,2252.00,1214.00,352.00,178.00,114.00,136.00,80.00,37.00,APPROVED
IL: CHAMPAIGN,01/03/2014 21:26:00,,2255.00,1194.00,349.00,174.00,116.00,137.00,78.00,37.00,APPROVED
IL: CHAMPAIGN,01/03/2014 22:26:00,,2279.00,1203.00,352.00,176.00,115.00,136.00,81.00,38.00,APPROVED
IL: CHAMPAIGN,01/03/2014 23:26:00,,2268.00,1203.00,349.00,173.00,114.00,134.00,78.00,38.00,APPROVED
IL: CHAMPAIGN,01/04/2014 00:26:00,,2268.00,1195.00,352.00,174.00,115.00,136.00,79.00,37.00,APPROVED
IL: CHAMPAIGN,01/04/2014 01:27:00,,2272.00,1186.00,348.00,176.00,113.00,137.00,78.00,38.00,APPROVED
IL: CHAMPAIGN,01/04/2014 02:27:00,,2264.00,1188.00,346.00,173.00,114.00,134.00,78.00,37.00,APPROVED
IL: CHAMPAIGN,01/04/2014 03:27:00,,2280.00,1193.00,349.00,173.00,113.00,134.00,79.00,37.00,APPROVED
IL: CHAMPAIGN,01/04/2014 04:27:00,,2267.00,1204.00,346.00,174.00,115.00,136.00,81.00,36.00,APPROVED
IL: CHAMPAIGN,01/04/2014 05:28:00,,2274.00,1209.00,346.00,177.00,114.00,137.00,84.00,37.00,APPROVED
IL: CHAMPAIGN,01/04/2014 06:28:00,,2289.00,1211.00,353.00,175.00,113.00,139.00,81.00,37.00,APPROVED
IL: CHAMPAIGN,01/04/2014 07:28:00,,2283.00,1225.00,355.00,178.00,115.00,135.00,82.00,38.00,APPROVED
IL: CHAMPAIGN,01/04/2014 08:28:00,,2286.00,1213.00,352.00,177.00,114.00,137.00,83.00,38.00,APPROVED
IL: CHAMPAIGN,01/04/2014 09:29:00,,2294.00,1215.00,350.00,178.00,113.00,135.00,84.00,37.00,APPROVED
IL: CHAMPAIGN,01/04/2014 10:29:00,,2298.00,1217.00,354.00,177.00,116.00,138.00,83.00,37.00,APPROVED
IL: CHAMPAIGN,01/04/2014 11:29:00,,2282.00,1219.00,358.00,179.00,119.00,135.00,81.00,38.00,APPROVED
IL: CHAMPAIGN,01/04/2014 12:29:00,,2272.00,1223.00,353.00,179.00,115.00,138.00,80.00,37.00,APPROVED
IL: CHAMPAIGN,01/04/2014 13:29:00,,2271.00,1209.00,351.00,180.00,116.00,138.00,83.00,39.00,APPROVED
IL: CHAMPAIGN,01/04/2014 14:30:00,,2262.00,1205.00,350.00,179.00,114.00,139.00,82.00,39.00,APPROVED
IL: CHAMPAIGN,01/04/2014 15:30:00,,2248.00,1206.00,349.00,179.00,115.00,134.00,83.00,37.00,APPROVED
IL: CHAMPAIGN,01/04/2014 16:30:00,,2238.00,1210.00,353.00,181.00,116.00,136.00,84.00,38.00,APPROVED
IL: CHAMPAIGN,01/04/2014 17:30:00,,2207.00,1194.00,353.00,177.00,115.00,134.00,86.00,38.00,APPROVED
IL: CHAMPAIGN,01/04/2014 18:31:00,,2142.00,1172.00,349.00,181.00,114.00,136.00,83.00,39.00,APPROVED
IL: CHAMPAIGN,01/04/2014 19:31:00,,2093.00,1152.00,348.00,179.00,117.00,135.00,87.00,38.00,APPROVED
IL: CHAMPAIGN,01/04/2014 20:31:00,,2061.00,1139.00,347.00,177.00,115.00,135.00,86.00,38.00,APPROVED
IL: CHAMPAIGN,01/04/2014 21:31:00,,2052.00,1137.00,344.00,179.00,115.00,136.00,85.00,37.00,APPROVED
IL: CHAMPAIGN,01/04/2014 22:32:00,,2092.00,1153.00,345.00,180.00,117.00,136.00,88.00,38.00,APPROVED
IL: CHAMPAIGN,01/04/2014 23:32:00,,2148.00,1174.00,351.00,179.00,116.00,135.00,87.00,39.00,APPROVED
IL: CHAMPAIGN,01/05/2014 00:32:00,,2179.00,1197.00,352.00,185.00,116.00,137.00,87.00,37.00,APPROVED
IL: CHAMPAIGN,01/05/2014 01:32:00,,2223.00,1232.00,362.00,186.00,117.00,140.00,89.00,39.00,APPROVED
IL: CHAMPAIGN,01/05/2014 02:33:00,,2191.00,1206.00,355.00,186.00,113.00,140.00,89.00,39.00,APPROVED
IL: CHAMPAIGN,01/05/2014 03:33:00,,2168.00,1189.00,353.00,182.00,117.00,135.00,87.00,37.00,APPROVED
IL: CHAMPAIGN,01/05/2014 04:33:00,,2174.00,1195.00,350.00,184.00,116.00,136.00,85.00,38.00,APPROVED
IL: CHAMPAIGN,01/05/2014 05:33:00,,2188.00,1201.00,352.00,183.00,118.00,135.00,87.00,37.00,APPROVED
IL: CHAMPAIGN,01/05/2014 06:34:00,,2224.00,1234.00,362.00,188.00,119.00,138.00,92.00,39.00,APPROVED
IL: CHAMPAIGN,01/05/2014 07:34:00,,2241.00,1247.00,368.00,197.00,123.00,143.00,91.00,40.00,APPROVED
IL: CHAMPAIGN,01/05/2014 08:34:00,,2266.00,1270.00,377.00,204.00,122.00,148.00,92.00,40.00,APPROVED
IL: CHAMPAIGN,01/05/2014 09:34:00,,2350.00,1349.00,397.00,220.00,130.00,158.00,98.00,41.00,APPROVED
IL: CHAMPAIGN,01/05/2014 10:34:00,,2438.00,1450.00,415.00,245.00,138.00,167.00,103.00,42.00,APPROVED
IL: CHAMPAIGN,01/05/2014 11:35:00,,2431.00,1445.00,426.00,242.00,136.00,174.00,105.00,44.00,APPROVED
IL: CHAMPAIGN,01/05/2014 12:35:00,,2401.00,1396.00,411.00,227.00,133.00,166.00,101.00,42.00,APPROVED
IL: CHAMPAIGN,01/05/2014 13:35:00,,2373.00,1360.00,395.00,217.00,129.00,155.00,99.00,42.00,APPROVED
IL: CHAMPAIGN,01/05/2014 14:35:00,,2816.00,1731.00,492.00,280.00,153.00,196.00,114.00,49.00,APPROVED
IL: CHAMPAIGN,01/05/2014 15:50:00,,2817.00,1627.00,473.00,255.00,144.00,190.00,105.00,42.00,APPROVED
IL: CHAMPAIGN,01/05/2014 16:51:00,,3140.00,1917.00,541.00,294.00,161.00,215.00,118.00,44.00,APPROVED
IL: CHAMPAIGN,01/05/2014 17:51:00,,3013.00,1809.00,539.00,284.00,157.00,208.00,113.00,45.00,APPROVED
IL: CHAMPAIGN,01/05/2014 18:51:00,,2647.00,1524.00,445.00,235.00,136.00,178.00,95.00,40.00,APPROVED
IL: CHAMPAIGN,01/05/2014 19:51:00,,2571.00,1465.00,425.00,223.00,131.00,167.00,90.00,39.00,APPROVED
IL: CHAMPAIGN,01/05/2014 20:52:00,,2702.00,1561.00,459.00,230.00,135.00,182.00,96.00,42.00,APPROVED
IL: CHAMPAIGN,01/05/2014 21:52:00,,2903.00,1723.00,503.00,256.00,148.00,198.00,103.00,43.00,APPROVED
IL: CHAMPAIGN,01/05/2014 22:52:00,,2739.00,1607.00,476.00,241.00,141.00,183.00,96.00,41.00,APPROVED
IL: CHAMPAIGN,01/05/2014 23:52:00,,2589.00,1458.00,436.00,215.00,130.00,170.00,89.00,39.00,APPROVED
IL: CHAMPAIGN,01/06/2014 00:52:00,,2463.00,1359.00,408.00,199.00,119.00,162.00,83.00,40.00,APPROVED
IL: CHAMPAIGN,01/06/2014 01:53:00,,2346.00,1281.00,381.00,186.00,117.00,151.00,75.00,37.00,APPROVED
IL: CHAMPAIGN,01/06/2014 02:53:00,,2240.00,1212.00,360.00,174.00,108.00,145.00,73.00,38.00,APPROVED
IL: CHAMPAIGN,01/06/2014 03:53:00,,2170.00,1152.00,340.00,165.00,104.00,137.00,66.00,35.00,APPROVED
IL: CHAMPAIGN,01/06/2014 04:53:00,,2124.00,1124.00,331.00,159.00,102.00,134.00,64.00,36.00,APPROVED
IL: CHAMPAIGN,01/06/2014 05:54:00,,2124.00,1112.00,331.00,159.00,102.00,134.00,62.00,36.00,APPROVED
IL: CHAMPAIGN,01/06/2014 06:54:00,,2137.00,1123.00,332.00,157.00,103.00,137.00,58.00,37.00,APPROVED
IL: CHAMPAIGN,01/06/2014 07:54:00,,2115.00,1111.00,332.00,156.00,100.00,136.00,58.00,36.00,APPROVED
IL: CHAMPAIGN,01/06/2014 08:54:00,,2120.00,1108.00,329.00,155.00,104.00,136.00,56.00,35.00,APPROVED
IL: CHAMPAIGN,01/06/2014 09:55:00,,2097.00,1090.00,327.00,153.00,101.00,136.00,57.00,34.00,APPROVED
IL: CHAMPAIGN,01/06/2014 10:55:00,,2128.00,1103.00,336.00,152.00,101.00,138.00,56.00,36.00,APPROVED
IL: CHAMPAIGN,01/06/2014 11:55:00,,2111.00,1093.00,334.00,152.00,101.00,138.00,56.00,35.00,APPROVED
IL: CHAMPAIGN,01/06/2014 12:55:00,,2102.00,1091.00,331.00,153.00,102.00,137.00,53.00,36.00,APPROVED
IL: CHAMPAIGN,01/06/2014 13:56:00,,2104.00,1086.00,328.00,151.00,100.00,137.00,52.00,37.00,APPROVED
IL: CHAMPAIGN,01/06/2014 14:56:00,,2122.00,1096.00,337.00,152.00,102.00,140.00,51.00,35.00,APPROVED
IL: CHAMPAIGN,01/06/2014 15:56:00,,2125.00,1104.00,332.00,156.00,100.00,141.00,54.00,36.00,APPROVED
IL: CHAMPAIGN,01/06/2014 16:56:00,,2111.00,1095.00,334.00,153.00,100.00,138.00,52.00,35.00,APPROVED
IL: CHAMPAIGN,01/06/2014 17:57:00,,2137.00,1098.00,332.00,156.00,100.00,139.00,55.00,35.00,APPROVED
IL: CHAMPAIGN,01/06/2014 18:57:00,,2145.00,1122.00,341.00,155.00,101.00,143.00,54.00,36.00,APPROVED
IL: CHAMPAIGN,01/06/2014 19:58:00,,2138.00,1119.00,344.00,156.00,106.00,141.00,56.00,36.00,APPROVED
IL: CHAMPAIGN,01/06/2014 20:58:00,,2122.00,1098.00,329.00,152.00,102.00,138.00,53.00,35.00,APPROVED
IL: CHAMPAIGN,01/06/2014 21:58:00,,2098.00,1072.00,320.00,152.00,102.00,134.00,53.00,35.00,APPROVED
IL: CHAMPAIGN,01/06/2014 22:59:00,,2094.00,1084.00,329.00,150.00,102.00,137.00,53.00,35.00,APPROVED
IL: CHAMPAIGN,01/06/2014 23:59:00,,2096.00,1072.00,324.00,149.00,101.00,138.00,52.00,35.00,APPROVED
IL: CHAMPAIGN,01/07/2014 00:59:00,,2088.00,1069.00,316.00,150.00,100.00,137.00,51.00,35.00,APPROVED
IL: CHAMPAIGN,01/07/2014 01:59:00,,2088.00,1074.00,322.00,149.00,98.00,136.00,51.00,35.00,APPROVED
IL: CHAMPAIGN,01/07/2014 03:00:00,,2099.00,1078.00,325.00,152.00,99.00,135.00,55.00,35.00,APPROVED
IL: CHAMPAIGN,01/07/2014 04:00:00,,2099.00,1090.00,321.00,153.00,99.00,137.00,50.00,35.00,APPROVED
IL: CHAMPAIGN,01/07/2014 05:00:00,,2103.00,1087.00,327.00,148.00,101.00,137.00,54.00,35.00,APPROVED
IL: CHAMPAIGN,01/07/2014 06:00:00,,2111.00,1094.00,327.00,151.00,100.00,135.00,53.00,36.00,APPROVED
IL: CHAMPAIGN,01/07/2014 07:01:00,,2123.00,1105.00,327.00,155.00,100.00,139.00,53.00,36.00,APPROVED
IL: CHAMPAIGN,01/07/2014 08:01:00,,2135.00,1103.00,330.00,153.00,103.00,140.00,53.00,36.00,APPROVED
IL: CHAMPAIGN,01/07/2014 09:01:00,,2128.00,1098.00,328.00,153.00,100.00,137.00,52.00,36.00,APPROVED
IL: CHAMPAIGN,01/07/2014 10:01:00,,2145.00,1107.00,330.00,150.00,101.00,139.00,54.00,36.00,APPROVED
IL: CHAMPAIGN,01/07/2014 11:02:00,,2126.00,1102.00,334.00,154.00,103.00,142.00,54.00,36.00,APPROVED
IL: CHAMPAIGN,01/07/2014 12:02:00,,2134.00,1109.00,336.00,153.00,102.00,142.00,54.00,36.00,APPROVED
IL: CHAMPAIGN,01/07/2014 13:02:00,,2132.00,1104.00,331.00,152.00,102.00,139.00,52.00,35.00,APPROVED
IL: CHAMPAIGN,01/07/2014 14:02:00,,2135.00,1099.00,331.00,151.00,100.00,141.00,53.00,36.00,APPROVED
IL: CHAMPAIGN,01/07/2014 15:02:00,,2129.00,1097.00,330.00,152.00,101.00,138.00,53.00,37.00,APPROVED
IL: CHAMPAIGN,01/07/2014 16:03:00,,2138.00,1084.00,328.00,149.00,100.00,141.00,51.00,35.00,APPROVED
IL: CHAMPAIGN,01/07/2014 17:03:00,,2134.00,1081.00,324.00,151.00,100.00,136.00,48.00,35.00,APPROVED
IL: CHAMPAIGN,01/07/2014 18:03:00,,2125.00,1075.00,321.00,146.00,99.00,136.00,50.00,35.00,APPROVED
IL: CHAMPAIGN,01/07/2014 19:03:00,,2119.00,1070.00,321.00,147.00,97.00,134.00,49.00,33.00,APPROVED
IL: CHAMPAIGN,01/07/2014 20:04:00,,2126.00,1061.00,316.00,150.00,97.00,134.00,48.00,34.00,APPROVED
IL: CHAMPAIGN,01/07/2014 21:04:00,,2111.00,1053.00,314.00,145.00,95.00,132.00,46.00,34.00,APPROVED
IL: CHAMPAIGN,01/09/2014 15:41:00,,2306.00,1365.00,387.00,232.00,124.00,158.00,92.00,39.00,APPROVED
IL: CHAMPAIGN,01/09/2014 16:41:00,,2266.00,1312.00,372.00,220.00,122.00,151.00,90.00,38.00,APPROVED
IL: CHAMPAIGN,01/09/2014 17:41:00,,2204.00,1257.00,359.00,204.00,115.00,146.00,85.00,38.00,APPROVED
IL: CHAMPAIGN,01/09/2014 18:42:00,,2191.00,1261.00,361.00,205.00,117.00,146.00,87.00,38.00,APPROVED
IL: CHAMPAIGN,01/09/2014 19:42:00,,2185.00,1242.00,359.00,206.00,117.00,143.00,85.00,37.00,APPROVED
IL: CHAMPAIGN,01/09/2014 20:42:00,,2151.00,1208.00,351.00,200.00,115.00,142.00,84.00,37.00,APPROVED
IL: CHAMPAIGN,01/09/2014 21:42:00,,2151.00,1218.00,347.00,200.00,116.00,141.00,85.00,36.00,APPROVED
IL: CHAMPAIGN,01/09/2014 22:43:00,,2218.00,1282.00,363.00,212.00,120.00,147.00,88.00,38.00,APPROVED
IL: CHAMPAIGN,01/09/2014 23:43:00,,2184.00,1325.00,367.00,237.00,125.00,156.00,96.00,42.00,APPROVED
IL: CHAMPAIGN,01/10/2014 00:43:00,,2178.00,1336.00,369.00,237.00,125.00,162.00,97.00,44.00,APPROVED
IL: CHAMPAIGN,01/10/2014 01:43:00,,2219.00,1391.00,380.00,251.00,128.00,163.00,100.00,47.00,APPROVED
IL: CHAMPAIGN,01/10/2014 02:44:00,,2157.00,1326.00,371.00,234.00,123.00,159.00,97.00,45.00,APPROVED
IL: CHAMPAIGN,01/10/2014 03:44:00,,2100.00,1272.00,353.00,224.00,117.00,149.00,93.00,43.00,APPROVED
IL: CHAMPAIGN,01/10/2014 04:44:00,,2052.00,1231.00,345.00,214.00,112.00,146.00,94.00,41.00,APPROVED
IL: CHAMPAIGN,01/10/2014 05:44:00,,2036.00,1211.00,347.00,215.00,114.00,145.00,94.00,42.00,APPROVED
IL: CHAMPAIGN,01/10/2014 06:45:00,,2036.00,1209.00,339.00,208.00,114.00,144.00,91.00,42.00,APPROVED
IL: CHAMPAIGN,01/10/2014 07:45:00,,2007.00,1205.00,341.00,204.00,111.00,144.00,91.00,41.00,APPROVED
IL: CHAMPAIGN,01/10/2014 08:45:00,,2014.00,1201.00,346.00,209.00,114.00,144.00,90.00,41.00,APPROVED
IL: CHAMPAIGN,01/10/2014 09:45:00,,2009.00,1198.00,340.00,208.00,111.00,143.00,91.00,42.00,APPROVED
IL: CHAMPAIGN,01/10/2014 10:46:00,,1996.00,1189.00,343.00,203.00,112.00,142.00,90.00,39.00,APPROVED
IL: CHAMPAIGN,01/10/2014 11:46:00,,1982.00,1185.00,336.00,200.00,113.00,140.00,90.00,40.00,APPROVED
IL: CHAMPAIGN,01/10/2014 12:46:00,,1991.00,1187.00,338.00,207.00,112.00,142.00,90.00,41.00,APPROVED
IL: CHAMPAIGN,01/10/2014 13:46:00,,1987.00,1188.00,335.00,202.00,111.00,143.00,92.00,40.00,APPROVED
IL: CHAMPAIGN,01/10/2014 14:46:00,,2022.00,1241.00,348.00,214.00,115.00,145.00,92.00,42.00,APPROVED
IL: CHAMPAIGN,01/10/2014 15:47:00,,2047.00,1270.00,356.00,222.00,117.00,152.00,96.00,44.00,APPROVED
IL: CHAMPAIGN,01/10/2014 16:47:00,,2049.00,1269.00,358.00,227.00,119.00,158.00,93.00,43.00,APPROVED
IL: CHAMPAIGN,01/10/2014 17:47:00,,2075.00,1286.00,363.00,234.00,123.00,156.00,96.00,46.00,APPROVED
IL: CHAMPAIGN,01/10/2014 18:47:00,,2092.00,1310.00,370.00,240.00,124.00,160.00,98.00,44.00,APPROVED
IL: CHAMPAIGN,01/10/2014 19:48:00,,2268.00,1463.00,399.00,266.00,133.00,172.00,106.00,50.00,APPROVED
IL: CHAMPAIGN,01/10/2014 20:48:00,,2583.00,1723.00,469.00,329.00,153.00,205.00,119.00,60.00,APPROVED
IL: CHAMPAIGN,01/10/2014 21:48:00,,2433.00,1594.00,445.00,301.00,148.00,190.00,113.00,54.00,APPROVED
IL: CHAMPAIGN,01/10/2014 22:48:00,,2356.00,1525.00,426.00,288.00,142.00,184.00,113.00,53.00,APPROVED
IL: CHAMPAIGN,01/10/2014 23:49:00,,2258.00,1449.00,413.00,271.00,135.00,177.00,106.00,50.00,APPROVED
IL: CHAMPAIGN,01/11/2014 00:49:00,,2234.00,1440.00,402.00,271.00,134.00,175.00,108.00,48.00,APPROVED
IL: CHAMPAIGN,01/11/2014 01:49:00,,2375.00,1558.00,438.00,291.00,142.00,188.00,110.00,53.00,APPROVED
IL: CHAMPAIGN,01/11/2014 02:49:00,,2436.00,1602.00,446.00,307.00,151.00,197.00,117.00,57.00,APPROVED
IL: CHAMPAIGN,01/11/2014 03:50:00,,2124.00,1349.00,385.00,246.00,127.00,168.00,104.00,48.00,APPROVED
IL: CHAMPAIGN,01/11/2014 04:50:00,,1967.00,1208.00,350.00,211.00,118.00,146.00,96.00,41.00,APPROVED
IL: CHAMPAIGN,01/11/2014 05:50:00,,1935.00,1174.00,343.00,208.00,113.00,148.00,95.00,41.00,APPROVED
IL: CHAMPAIGN,01/11/2014 06:50:00,,1987.00,1220.00,353.00,217.00,116.00,152.00,96.00,43.00,APPROVED
IL: CHAMPAIGN,01/11/2014 07:50:00,,2178.00,1396.00,398.00,255.00,134.00,170.00,103.00,48.00,APPROVED
IL: CHAMPAIGN,01/11/2014 08:51:00,,2104.00,1313.00,380.00,242.00,123.00,164.00,103.00,46.00,APPROVED
IL: CHAMPAIGN,01/11/2014 09:51:00,,2189.00,1401.00,394.00,256.00,130.00,168.00,105.00,49.00,APPROVED
IL: CHAMPAIGN,01/11/2014 10:51:00,,2192.00,1396.00,402.00,260.00,134.00,175.00,108.00,49.00,APPROVED
IL: CHAMPAIGN,01/11/2014 11:51:00,,2104.00,1314.00,374.00,239.00,125.00,159.00,100.00,44.00,APPROVED
IL: CHAMPAIGN,01/11/2014 12:52:00,,2148.00,1356.00,380.00,246.00,129.00,165.00,103.00,46.00,APPROVED
IL: CHAMPAIGN,01/11/2014 13:52:00,,2202.00,1396.00,387.00,257.00,131.00,169.00,105.00,48.00,APPROVED
IL: CHAMPAIGN,01/11/2014 14:52:00,,2237.00,1418.00,392.00,262.00,134.00,174.00,105.00,47.00,APPROVED
IL: CHAMPAIGN,01/11/2014 15:52:00,,2262.00,1423.00,394.00,258.00,133.00,173.00,106.00,47.00,APPROVED
IL: CHAMPAIGN,01/11/2014 16:53:00,,2339.00,1508.00,413.00,281.00,143.00,182.00,113.00,52.00,APPROVED
IL: CHAMPAIGN,01/11/2014 17:53:00,,2303.00,1479.00,407.00,277.00,141.00,179.00,111.00,50.00,APPROVED
IL: CHAMPAIGN,01/11/2014 18:53:00,,2274.00,1457.00,402.00,272.00,137.00,180.00,109.00,51.00,APPROVED
IL: CHAMPAIGN,01/11/2014 19:53:00,,2229.00,1418.00,395.00,261.00,134.00,172.00,107.00,50.00,APPROVED
IL: CHAMPAIGN,01/11/2014 20:54:00,,2179.00,1370.00,382.00,258.00,128.00,170.00,105.00,47.00,APPROVED
IL: CHAMPAIGN,01/11/2014 21:54:00,,2134.00,1348.00,376.00,244.00,126.00,168.00,102.00,45.00,APPROVED
IL: CHAMPAIGN,01/11/2014 22:54:00,,2131.00,1330.00,377.00,240.00,128.00,165.00,102.00,45.00,APPROVED
IL: CHAMPAIGN,01/11/2014 23:54:00,,2140.00,1330.00,379.00,240.00,124.00,164.00,103.00,46.00,APPROVED
IL: CHAMPAIGN,01/12/2014 00:55:00,,2167.00,1347.00,377.00,238.00,124.00,163.00,100.00,45.00,APPROVED
IL: CHAMPAIGN,01/12/2014 01:55:00,,2205.00,1361.00,377.00,237.00,127.00,160.00,101.00,44.00,APPROVED
IL: CHAMPAIGN,01/12/2014 02:55:00,,2234.00,1385.00,388.00,239.00,126.00,167.00,104.00,46.00,APPROVED
IL: CHAMPAIGN,01/12/2014 03:55:00,,2278.00,1408.00,386.00,246.00,130.00,167.00,104.00,46.00,APPROVED
IL: CHAMPAIGN,01/12/2014 04:55:00,,2272.00,1416.00,392.00,253.00,132.00,171.00,106.00,47.00,APPROVED
IL: CHAMPAIGN,01/12/2014 05:56:00,,2277.00,1421.00,391.00,255.00,132.00,171.00,105.00,47.00,APPROVED
IL: CHAMPAIGN,01/12/2014 06:56:00,,2265.00,1429.00,391.00,259.00,132.00,173.00,106.00,47.00,APPROVED
IL: CHAMPAIGN,01/12/2014 07:56:00,,2248.00,1406.00,386.00,251.00,130.00,169.00,107.00,48.00,APPROVED
IL: CHAMPAIGN,01/12/2014 08:56:00,,2241.00,1406.00,386.00,251.00,132.00,167.00,105.00,46.00,APPROVED
IL: CHAMPAIGN,01/12/2014 09:57:00,,2217.00,1396.00,382.00,249.00,128.00,163.00,105.00,45.00,APPROVED
IL: CHAMPAIGN,01/12/2014 10:57:00,,2203.00,1345.00,373.00,240.00,128.00,161.00,104.00,44.00,APPROVED
IL: CHAMPAIGN,01/12/2014 11:57:00,,2180.00,1327.00,374.00,232.00,125.00,157.00,101.00,44.00,APPROVED
IL: CHAMPAIGN,01/12/2014 12:57:00,,2170.00,1329.00,370.00,228.00,124.00,157.00,101.00,43.00,APPROVED
IL: CHAMPAIGN,01/12/2014 13:58:00,,2195.00,1350.00,378.00,234.00,125.00,158.00,101.00,46.00,APPROVED